Find Starlink 1992

NORAD ID: 47632 Int'l Des: 2021-012 Owner: SPXS Country: US Constellation: starlink operational
LEOCIRCULAR

实时位置

正在加载3D地球...

关于 Starlink 1992

正在加载描述...

即将过境

Passes for default location (London). Set your location on the main map for personalized predictions.

高度历史

Loading altitude history...

两行轨道根数

1 47632U 21012N 26125.07913113 .00002771 00000-0 10562-3 0 9993
2 47632 53.1605 70.4882 0001257 94.8487 265.2657 15.30204556289999
Epoch: May 5, 2026 • Age: 8 hours

当前状态

高度 477.3 km
速度 7.63 km/s
星下点 -6.22°S, 55.49°E
发射日期 Feb 16, 2021
运行时间 5.2 years
类型 internet

技术详情

分类 Payload
质量 260.00 kg
干质量 248.00 kg
总质量 260.00 kg
长度 0.20 m
直径 2.80 m
跨度 9.00 m
形状 Box + pan
制造商 SPXS
平台类型 Starlink
阶段状态 In Orbit
所有者/国家 SPXS/US

Most Searched